Export;EXP-2023-01 (20230710 12:58);;;StationsCode;NL01483;NL01492;NL01494;NL01496
Periode;20090101 00:00 - 20100101 00:00;;;BeheerderMeetStation;DCMR;DCMR;DCMR;DCMR
Bron;https://data.rivm.nl/data/luchtmeetnet;;;StationsNaam;Botlek-Spoortunnel;Rotterdam-Vasteland;Schiedam-Alphons Arienstraat;Hoek v. Holland-Berghaven
Beschrijving data;https://data.rivm.nl/data/luchtmeetnet/readme.pdf;;;Latitude,Longitude;(51.870069,4.318061);(51.914264,4.479992);(51.921389,4.401389);(51.977803,4.121944)
Accreditatienummer;https://www.rva.nl/alle-geaccrediteerden/;;;StationsGebied;stad;stad;stad;voorstad
;;;;StationsType;industrie;verkeer;achtergrond;industrie
;;;;Meetprincipe;Multi-hoek absorptie fotometrie (MAAP);Multi-hoek absorptie fotometrie (MAAP);Multi-hoek absorptie fotometrie (MAAP);Multi-hoek absorptie fotometrie (MAAP)
;;;;Meetopstelling;Thermo Scientific 5012 MAAP  ;Thermo Scientific 5012 MAAP  ;Thermo Scientific 5012 MAAP  ;Thermo Scientific 5012 MAAP  
;;;;Accreditatienummer;L520;L520;L520;L520
Component;Bep.periode;Eenheid; Begindatumtijd;Einddatumtijd;NL01483;NL01492;NL01494;NL01496
BC;uur;�g/m�;20090101 00:00;20090101 01:00;7.482;10.677;13.073;5.75
BC;uur;�g/m�;20090101 01:00;20090101 02:00;10.784;11.911;12.662;7.861
BC;uur;�g/m�;20090101 02:00;20090101 03:00;8.053;10.061;11.721;8.459
BC;uur;�g/m�;20090101 03:00;20090101 04:00;5.886;12.35;11.875;7.622
BC;uur;�g/m�;20090101 04:00;20090101 05:00;6.01;10.9;10.249;7.478
BC;uur;�g/m�;20090101 05:00;20090101 06:00;5.187;10.463;8.973;5.68
BC;uur;�g/m�;20090101 06:00;20090101 07:00;6.202;8.357;9.225;3.868
BC;uur;�g/m�;20090101 07:00;20090101 08:00;7.534;7.534;7.274;3.321
BC;uur;�g/m�;20090101 08:00;20090101 09:00;7.682;5.926;5.91;3.223
BC;uur;�g/m�;20090101 09:00;20090101 10:00;5.082;5.165;5.633;3.512
BC;uur;�g/m�;20090101 10:00;20090101 11:00;3.953;4.207;4.498;3.447
BC;uur;�g/m�;20090101 11:00;20090101 12:00;4.254;4.919;5.106;3.453
BC;uur;�g/m�;20090101 12:00;20090101 13:00;4.799;5.428;5.37;3.655
BC;uur;�g/m�;20090101 13:00;20090101 14:00;5.243;5.637;5.676;3.779
BC;uur;�g/m�;20090101 14:00;20090101 15:00;5.521;5.663;6.141;3.682
BC;uur;�g/m�;20090101 15:00;20090101 16:00;5.36;5.759;5.612;3.019
BC;uur;�g/m�;20090101 16:00;20090101 17:00;5.262;5.859;6.118;2.857
BC;uur;�g/m�;20090101 17:00;20090101 18:00;4.999;6.487;6.155;2.959
BC;uur;�g/m�;20090101 18:00;20090101 19:00;4.659;6.833;6.353;3.119
BC;uur;�g/m�;20090101 19:00;20090101 20:00;4.984;8.179;6.554;3.023
BC;uur;�g/m�;20090101 20:00;20090101 21:00;4.669;8.477;6.629;2.977
BC;uur;�g/m�;20090101 21:00;20090101 22:00;4.111;7.76;7.335;3.598
BC;uur;�g/m�;20090101 22:00;20090101 23:00;3.362;6.279;5.621;3.774
BC;uur;�g/m�;20090101 23:00;20090102 00:00;3.254;6.054;4.462;3.472
BC;uur;�g/m�;20090102 00:00;20090102 01:00;3.557;5.26;4.213;4.537
BC;uur;�g/m�;20090102 01:00;20090102 02:00;2.965;4.637;3.172;4.415
BC;uur;�g/m�;20090102 02:00;20090102 03:00;2.602;4.029;2.909;1.845
BC;uur;�g/m�;20090102 03:00;20090102 04:00;2.386;3.59;2.589;2.571
BC;uur;�g/m�;20090102 04:00;20090102 05:00;2.588;3.067;2.603;0.593
BC;uur;�g/m�;20090102 05:00;20090102 06:00;3.686;2.553;2.191;0.173
BC;uur;�g/m�;20090102 06:00;20090102 07:00;2.553;1.258;1.322;0.161
BC;uur;�g/m�;20090102 07:00;20090102 08:00;1.509;0.941;1.612;0.277
BC;uur;�g/m�;20090102 08:00;20090102 09:00;1.384;1.887;2.471;0.179
BC;uur;�g/m�;20090102 09:00;20090102 10:00;1.013;2.686;4.913;0.474
BC;uur;�g/m�;20090102 10:00;20090102 11:00;1.838;2.209;3.953;0.607
BC;uur;�g/m�;20090102 11:00;20090102 12:00;1.489;2.14;3.714;0.608
BC;uur;�g/m�;20090102 12:00;20090102 13:00;1.527;1.648;2.419;0.761
BC;uur;�g/m�;20090102 13:00;20090102 14:00;1.388;1.882;3.235;0.868
BC;uur;�g/m�;20090102 14:00;20090102 15:00;2.497;2.432;1.989;1.016
BC;uur;�g/m�;20090102 15:00;20090102 16:00;4.922;2.602;2.386;1.003
BC;uur;�g/m�;20090102 16:00;20090102 17:00;2.073;3.02;3.175;1.227
BC;uur;�g/m�;20090102 17:00;20090102 18:00;3.414;3.348;3.897;1.363
BC;uur;�g/m�;20090102 18:00;20090102 19:00;2.841;2.725;3.647;1.509
BC;uur;�g/m�;20090102 19:00;20090102 20:00;2.392;3.054;3.301;1.584
BC;uur;�g/m�;20090102 20:00;20090102 21:00;1.966;2.962;3.464;1.757
BC;uur;�g/m�;20090102 21:00;20090102 22:00;1.751;4.324;4.283;2.092
BC;uur;�g/m�;20090102 22:00;20090102 23:00;1.924;3.233;5.114;2.225
BC;uur;�g/m�;20090102 23:00;20090103 00:00;1.908;3.795;4.776;2.085
BC;uur;�g/m�;20090103 00:00;20090103 01:00;1.859;2.872;4.873;2.069
BC;uur;�g/m�;20090103 01:00;20090103 02:00;2.248;2.979;4.845;1.813
BC;uur;�g/m�;20090103 02:00;20090103 03:00;2.439;2.874;5.213;1.757
BC;uur;�g/m�;20090103 03:00;20090103 04:00;1.904;2.545;5.36;1.9
BC;uur;�g/m�;20090103 04:00;20090103 05:00;2.199;3.607;5.302;1.817
BC;uur;�g/m�;20090103 05:00;20090103 06:00;2.732;4.438;4.069;2.408
BC;uur;�g/m�;20090103 06:00;20090103 07:00;4.149;4.454;5.876;3.805
BC;uur;�g/m�;20090103 07:00;20090103 08:00;4.294;5.043;6.468;3.177
BC;uur;�g/m�;20090103 08:00;20090103 09:00;5.301;7.596;6.867;3.921
BC;uur;�g/m�;20090103 09:00;20090103 10:00;4.894;10.609;10.128;4.631
BC;uur;�g/m�;20090103 10:00;20090103 11:00;4.349;8.814;9.13;3.631
BC;uur;�g/m�;20090103 11:00;20090103 12:00;4.032;8.369;10.347;2.968
BC;uur;�g/m�;20090103 12:00;20090103 13:00;4.231;6.613;6.827;2.304
BC;uur;�g/m�;20090103 13:00;20090103 14:00;4.175;6.291;3.732;2.461
BC;uur;�g/m�;20090103 14:00;20090103 15:00;3.907;7.017;3.528;1.53
BC;uur;�g/m�;20090103 15:00;20090103 16:00;3.852;6.101;3.528;1.122
BC;uur;�g/m�;20090103 16:00;20090103 17:00;2.992;6.312;3.456;2.193
BC;uur;�g/m�;20090103 17:00;20090103 18:00;3.406;5.644;3.429;0.285
BC;uur;�g/m�;20090103 18:00;20090103 19:00;2.849;5.12;4.034;0.167
BC;uur;�g/m�;20090103 19:00;20090103 20:00;2.463;5.713;3.576;0.113
BC;uur;�g/m�;20090103 20:00;20090103 21:00;2.391;5.159;4.038;0.065
BC;uur;�g/m�;20090103 21:00;20090103 22:00;2.04;5.112;3.674;0.139
BC;uur;�g/m�;20090103 22:00;20090103 23:00;1.257;5.89;1.016;0.421
BC;uur;�g/m�;20090103 23:00;20090104 00:00;0.79;3.714;1.105;0.473
BC;uur;�g/m�;20090104 00:00;20090104 01:00;0.887;1.956;0.743;0.276
BC;uur;�g/m�;20090104 01:00;20090104 02:00;1.053;0.908;0.414;0.275
BC;uur;�g/m�;20090104 02:00;20090104 03:00;1.206;0.563;0.352;0.486
BC;uur;�g/m�;20090104 03:00;20090104 04:00;1.872;0.564;0.371;0.482
BC;uur;�g/m�;20090104 04:00;20090104 05:00;1.119;0.513;0.404;0.531
BC;uur;�g/m�;20090104 05:00;20090104 06:00;1.056;0.794;0.524;0.489
BC;uur;�g/m�;20090104 06:00;20090104 07:00;0.889;0.982;0.667;0.722
BC;uur;�g/m�;20090104 07:00;20090104 08:00;0.915;1.097;0.843;1.036
BC;uur;�g/m�;20090104 08:00;20090104 09:00;0.965;1.312;0.949;0.761
BC;uur;�g/m�;20090104 09:00;20090104 10:00;1.261;1.329;1.215;0.582
BC;uur;�g/m�;20090104 10:00;20090104 11:00;1.5;1.235;1.123;0.541
BC;uur;�g/m�;20090104 11:00;20090104 12:00;1.642;1.497;1.401;0.712
BC;uur;�g/m�;20090104 12:00;20090104 13:00;1.605;1.67;1.091;0.577
BC;uur;�g/m�;20090104 13:00;20090104 14:00;1.529;1.739;1.194;0.526
BC;uur;�g/m�;20090104 14:00;20090104 15:00;1.957;1.613;1.137;0.646
BC;uur;�g/m�;20090104 15:00;20090104 16:00;2.182;1.718;1.081;0.616
BC;uur;�g/m�;20090104 16:00;20090104 17:00;1.866;1.866;1.364;0.723
BC;uur;�g/m�;20090104 17:00;20090104 18:00;1.319;2.042;1.118;0.803
BC;uur;�g/m�;20090104 18:00;20090104 19:00;1.331;1.74;1.191;0.476
BC;uur;�g/m�;20090104 19:00;20090104 20:00;1.461;1.403;0.834;0.494
BC;uur;�g/m�;20090104 20:00;20090104 21:00;1.1;1.427;0.78;0.702
BC;uur;�g/m�;20090104 21:00;20090104 22:00;1.383;1.405;1.107;1.313
BC;uur;�g/m�;20090104 22:00;20090104 23:00;1.357;1.711;1.329;0.877
BC;uur;�g/m�;20090104 23:00;20090105 00:00;1.214;1.399;1.266;0.588
BC;uur;�g/m�;20090105 00:00;20090105 01:00;0.765;1.06;1.06;0.484
BC;uur;�g/m�;20090105 01:00;20090105 02:00;0.523;0.777;0.675;0.438
BC;uur;�g/m�;20090105 02:00;20090105 03:00;0.477;0.689;0.592;0.426
BC;uur;�g/m�;20090105 03:00;20090105 04:00;0.84;0.877;0.722;0.224
BC;uur;�g/m�;20090105 04:00;20090105 05:00;0.945;0.397;0.45;0.107
BC;uur;�g/m�;20090105 05:00;20090105 06:00;0.57;0.417;0.65;0.101
BC;uur;�g/m�;20090105 06:00;20090105 07:00;0.712;0.682;1.157;0.357
BC;uur;�g/m�;20090105 07:00;20090105 08:00;0.851;1.182;1.901;0.517
BC;uur;�g/m�;20090105 08:00;20090105 09:00;0.88;1.889;1.821;0.422
BC;uur;�g/m�;20090105 09:00;20090105 10:00;0.769;1.139;1.475;0.383
BC;uur;�g/m�;20090105 10:00;20090105 11:00;0.734;1.258;1.176;0.285
BC;uur;�g/m�;20090105 11:00;20090105 12:00;0.69;1.045;1.162;0.313
BC;uur;�g/m�;20090105 12:00;20090105 13:00;0.633;1.204;1.343;0.265
BC;uur;�g/m�;20090105 13:00;20090105 14:00;0.914;1.329;1.539;0.374
BC;uur;�g/m�;20090105 14:00;20090105 15:00;1.21;1.696;1.714;0.454
BC;uur;�g/m�;20090105 15:00;20090105 16:00;0.853;1.639;1.738;0.405
BC;uur;�g/m�;20090105 16:00;20090105 17:00;0.912;1.355;1.629;0.472
BC;uur;�g/m�;20090105 17:00;20090105 18:00;0.794;1.674;1.545;0.654
BC;uur;�g/m�;20090105 18:00;20090105 19:00;0.85;1.627;1.743;0.659
BC;uur;�g/m�;20090105 19:00;20090105 20:00;1.237;1.655;1.593;0.686
BC;uur;�g/m�;20090105 20:00;20090105 21:00;0.844;1.274;0.81;0.551
BC;uur;�g/m�;20090105 21:00;20090105 22:00;0.654;1.401;0.976;0.695
BC;uur;�g/m�;20090105 22:00;20090105 23:00;0.756;1.064;1.069;0.6
BC;uur;�g/m�;20090105 23:00;20090106 00:00;0.949;1.369;1.23;0.685
BC;uur;�g/m�;20090106 00:00;20090106 01:00;0.954;1.074;1.164;0.841
BC;uur;�g/m�;20090106 01:00;20090106 02:00;0.957;1.144;1.131;0.698
BC;uur;�g/m�;20090106 02:00;20090106 03:00;0.876;1.086;1.123;0.666
BC;uur;�g/m�;20090106 03:00;20090106 04:00;0.879;1.196;1.188;0.682
BC;uur;�g/m�;20090106 04:00;20090106 05:00;0.898;1.227;1.344;0.73
BC;uur;�g/m�;20090106 05:00;20090106 06:00;1.069;1.131;1.722;0.741
BC;uur;�g/m�;20090106 06:00;20090106 07:00;1.846;2.039;3.596;0.943
BC;uur;�g/m�;20090106 07:00;20090106 08:00;2.043;2.966;4.824;1.173
BC;uur;�g/m�;20090106 08:00;20090106 09:00;2.124;4.333;5.624;1.705
BC;uur;�g/m�;20090106 09:00;20090106 10:00;2.757;3.519;5.288;1.693
BC;uur;�g/m�;20090106 10:00;20090106 11:00;2.972;4.075;3.877;2.121
BC;uur;�g/m�;20090106 11:00;20090106 12:00;1.769;2.74;3.955;1.365
BC;uur;�g/m�;20090106 12:00;20090106 13:00;1.719;3.88;3.301;2.264
BC;uur;�g/m�;20090106 13:00;20090106 14:00;2.249;3.23;3.269;1.097
BC;uur;�g/m�;20090106 14:00;20090106 15:00;1.893;3.399;2.999;0.731
BC;uur;�g/m�;20090106 15:00;20090106 16:00;2.005;2.993;3.362;0.592
BC;uur;�g/m�;20090106 16:00;20090106 17:00;2.44;2.75;4.389;0.844
BC;uur;�g/m�;20090106 17:00;20090106 18:00;2.179;2.52;6.165;1.876
BC;uur;�g/m�;20090106 18:00;20090106 19:00;2.821;3.576;6.188;1.891
BC;uur;�g/m�;20090106 19:00;20090106 20:00;2.698;2.938;7.159;2.106
BC;uur;�g/m�;20090106 20:00;20090106 21:00;3.859;4.31;7.261;3.735
BC;uur;�g/m�;20090106 21:00;20090106 22:00;5.179;6.687;7.766;4.562
BC;uur;�g/m�;20090106 22:00;20090106 23:00;7.365;7.299;9.586;2.779
BC;uur;�g/m�;20090106 23:00;20090107 00:00;5.54;5.598;9.981;2.435
BC;uur;�g/m�;20090107 00:00;20090107 01:00;3.455;6.516;5.358;2.46
BC;uur;�g/m�;20090107 01:00;20090107 02:00;2.222;3.334;2.799;1.778
BC;uur;�g/m�;20090107 02:00;20090107 03:00;1.769;2.621;1.922;1.499
BC;uur;�g/m�;20090107 03:00;20090107 04:00;3.11;3.404;2.581;1.514
BC;uur;�g/m�;20090107 04:00;20090107 05:00;2.222;2.691;1.999;0.844
BC;uur;�g/m�;20090107 05:00;20090107 06:00;2.661;2.666;2.204;0.482
BC;uur;�g/m�;20090107 06:00;20090107 07:00;5.77;4.036;2.943;0.741
BC;uur;�g/m�;20090107 07:00;20090107 08:00;6.372;5.613;4.281;1.021
BC;uur;�g/m�;20090107 08:00;20090107 09:00;6.144;6.99;4.989;1.971
BC;uur;�g/m�;20090107 09:00;20090107 10:00;5.328;5.925;3.937;1.349
BC;uur;�g/m�;20090107 10:00;20090107 11:00;5.945;7.85;5.138;0.876
BC;uur;�g/m�;20090107 11:00;20090107 12:00;6.46;8.824;6.946;0.158
BC;uur;�g/m�;20090107 12:00;20090107 13:00;7.624;10.657;7.297;0.101
BC;uur;�g/m�;20090107 13:00;20090107 14:00;5.184;8.456;3.897;0.095
BC;uur;�g/m�;20090107 14:00;20090107 15:00;3.534;1.573;2.077;0.212
BC;uur;�g/m�;20090107 15:00;20090107 16:00;3.106;1.511;2.023;0.116
BC;uur;�g/m�;20090107 16:00;20090107 17:00;2.629;1.737;2.105;0.107
BC;uur;�g/m�;20090107 17:00;20090107 18:00;1.823;3.443;3.278;0.334
BC;uur;�g/m�;20090107 18:00;20090107 19:00;1.753;4.432;3.98;0.354
BC;uur;�g/m�;20090107 19:00;20090107 20:00;2.101;4.442;4.249;0.48
BC;uur;�g/m�;20090107 20:00;20090107 21:00;2.835;3.868;7.519;0.423
BC;uur;�g/m�;20090107 21:00;20090107 22:00;3.308;3.259;5.521;0.59
BC;uur;�g/m�;20090107 22:00;20090107 23:00;3.098;3.031;7.246;0.903
BC;uur;�g/m�;20090107 23:00;20090108 00:00;2.868;3.598;6.642;0.684
BC;uur;�g/m�;20090108 00:00;20090108 01:00;5.162;4.693;6.4;0.37
BC;uur;�g/m�;20090108 01:00;20090108 02:00;4.723;3.704;4.296;0.422
BC;uur;�g/m�;20090108 02:00;20090108 03:00;5.148;4.837;4.279;0.304
BC;uur;�g/m�;20090108 03:00;20090108 04:00;4.881;4.138;4.62;0.468
BC;uur;�g/m�;20090108 04:00;20090108 05:00;4.002;3.488;3.96;0.472
BC;uur;�g/m�;20090108 05:00;20090108 06:00;6.336;4.144;5.445;1.413
BC;uur;�g/m�;20090108 06:00;20090108 07:00;10.421;7.432;10.186;1.886
BC;uur;�g/m�;20090108 07:00;20090108 08:00;9.556;8.927;9.791;2.803
BC;uur;�g/m�;20090108 08:00;20090108 09:00;9.125;10.199;10.656;3.252
BC;uur;�g/m�;20090108 09:00;20090108 10:00;6.636;9.766;8.065;4.973
BC;uur;�g/m�;20090108 10:00;20090108 11:00;6.616;8.951;7.335;5.676
BC;uur;�g/m�;20090108 11:00;20090108 12:00;8.576;6.848;7.246;4.447
BC;uur;�g/m�;20090108 12:00;20090108 13:00;7.714;8.656;8.124;4.5
BC;uur;�g/m�;20090108 13:00;20090108 14:00;8.955;7.454;8.511;4.638
BC;uur;�g/m�;20090108 14:00;20090108 15:00;8.127;9.209;8.634;4.559
BC;uur;�g/m�;20090108 15:00;20090108 16:00;9.282;9.353;8.666;4.607
BC;uur;�g/m�;20090108 16:00;20090108 17:00;9.713;10.305;9.181;4.679
BC;uur;�g/m�;20090108 17:00;20090108 18:00;9.014;9.221;9.538;4.85
BC;uur;�g/m�;20090108 18:00;20090108 19:00;8.73;9.198;8.093;4.937
BC;uur;�g/m�;20090108 19:00;20090108 20:00;5.418;7.948;6.969;4.959
BC;uur;�g/m�;20090108 20:00;20090108 21:00;5.357;7.23;7.745;6.812
BC;uur;�g/m�;20090108 21:00;20090108 22:00;4.543;5.56;8.457;6.16
BC;uur;�g/m�;20090108 22:00;20090108 23:00;4.013;6.405;6.816;4.106
BC;uur;�g/m�;20090108 23:00;20090109 00:00;3.526;5.25;6.263;2.921
BC;uur;�g/m�;20090109 00:00;20090109 01:00;2.922;4.128;4.829;2.575
BC;uur;�g/m�;20090109 01:00;20090109 02:00;2.985;3.839;4.479;2.078
BC;uur;�g/m�;20090109 02:00;20090109 03:00;2.817;3.677;4.62;3.168
BC;uur;�g/m�;20090109 03:00;20090109 04:00;2.81;3.368;4.975;3.726
BC;uur;�g/m�;20090109 04:00;20090109 05:00;3.163;3.377;4.032;4.063
BC;uur;�g/m�;20090109 05:00;20090109 06:00;4.105;3.814;4.123;4.429
BC;uur;�g/m�;20090109 06:00;20090109 07:00;7.606;5.137;;4.924
BC;uur;�g/m�;20090109 07:00;20090109 08:00;9.328;6.273;;4.114
BC;uur;�g/m�;20090109 08:00;20090109 09:00;7.68;9.555;;5.009
BC;uur;�g/m�;20090109 09:00;20090109 10:00;8.339;9.306;;4.356
BC;uur;�g/m�;20090109 10:00;20090109 11:00;7.166;9.811;;3.529
BC;uur;�g/m�;20090109 11:00;20090109 12:00;6.98;9.834;9.657;3.921
BC;uur;�g/m�;20090109 12:00;20090109 13:00;8.96;10.344;9.614;4.668
BC;uur;�g/m�;20090109 13:00;20090109 14:00;8.564;9.796;9.702;4.515
BC;uur;�g/m�;20090109 14:00;20090109 15:00;9.287;8.894;8.312;7.019
BC;uur;�g/m�;20090109 15:00;20090109 16:00;10.545;9.518;9.088;7.403
BC;uur;�g/m�;20090109 16:00;20090109 17:00;9.856;7.663;8.522;7.193
BC;uur;�g/m�;20090109 17:00;20090109 18:00;9.848;8.551;9.012;5.241
BC;uur;�g/m�;20090109 18:00;20090109 19:00;8.39;7.603;7.88;6.111
BC;uur;�g/m�;20090109 19:00;20090109 20:00;6.373;7.816;7.374;4.751
BC;uur;�g/m�;20090109 20:00;20090109 21:00;6.16;8.151;7.318;5.373
BC;uur;�g/m�;20090109 21:00;20090109 22:00;7.606;7.916;7.151;5.765
BC;uur;�g/m�;20090109 22:00;20090109 23:00;7.702;6.802;6.854;4.147
BC;uur;�g/m�;20090109 23:00;20090110 00:00;6.597;7.769;8.624;4.123
BC;uur;�g/m�;20090110 00:00;20090110 01:00;7.783;6.618;7.221;4.381
BC;uur;�g/m�;20090110 01:00;20090110 02:00;6.77;5.922;9.569;4.793
BC;uur;�g/m�;20090110 02:00;20090110 03:00;6.1;5.469;9.309;5.878
BC;uur;�g/m�;20090110 03:00;20090110 04:00;6.136;4.532;9.561;5.846
BC;uur;�g/m�;20090110 04:00;20090110 05:00;5.214;4.997;7.641;5.033
BC;uur;�g/m�;20090110 05:00;20090110 06:00;5.68;5.462;6.606;4.057
BC;uur;�g/m�;20090110 06:00;20090110 07:00;6.381;6.02;7.055;4.227
BC;uur;�g/m�;20090110 07:00;20090110 08:00;7.346;6.633;7.782;4.764
BC;uur;�g/m�;20090110 08:00;20090110 09:00;7.43;7.387;8.377;7.071
BC;uur;�g/m�;20090110 09:00;20090110 10:00;7.525;9.462;8.887;7.848
BC;uur;�g/m�;20090110 10:00;20090110 11:00;8.97;9.022;9.024;7.37
BC;uur;�g/m�;20090110 11:00;20090110 12:00;9.589;9.69;9.451;6.616
BC;uur;�g/m�;20090110 12:00;20090110 13:00;8.888;8.895;8.921;6.718
BC;uur;�g/m�;20090110 13:00;20090110 14:00;9.909;9.366;9.209;8.281
BC;uur;�g/m�;20090110 14:00;20090110 15:00;7.822;8.478;8.122;7.787
BC;uur;�g/m�;20090110 15:00;20090110 16:00;7.516;8.507;7.929;5.27
BC;uur;�g/m�;20090110 16:00;20090110 17:00;6.466;7.44;7.167;6.139
BC;uur;�g/m�;20090110 17:00;20090110 18:00;7.009;10.096;8.413;6.219
BC;uur;�g/m�;20090110 18:00;20090110 19:00;6.957;9.521;8.337;5.621
BC;uur;�g/m�;20090110 19:00;20090110 20:00;6.436;8.444;7.133;5.291
BC;uur;�g/m�;20090110 20:00;20090110 21:00;6.309;7.95;7.548;5.942
BC;uur;�g/m�;20090110 21:00;20090110 22:00;6.265;7.081;7.014;6.227
BC;uur;�g/m�;20090110 22:00;20090110 23:00;6.236;7.315;7.695;5.898
BC;uur;�g/m�;20090110 23:00;20090111 00:00;5.896;7.73;7.365;5.438
BC;uur;�g/m�;20090111 00:00;20090111 01:00;5.965;7.011;6.505;4.415
BC;uur;�g/m�;20090111 01:00;20090111 02:00;5.147;6.147;5.932;3.514
BC;uur;�g/m�;20090111 02:00;20090111 03:00;4.763;5.328;5.413;3.37
BC;uur;�g/m�;20090111 03:00;20090111 04:00;4.377;5.813;5.408;3.443
BC;uur;�g/m�;20090111 04:00;20090111 05:00;4.211;4.795;5.095;3.462
BC;uur;�g/m�;20090111 05:00;20090111 06:00;4.127;4.331;4.754;4.006
BC;uur;�g/m�;20090111 06:00;20090111 07:00;4.217;4.505;4.535;4.49
BC;uur;�g/m�;20090111 07:00;20090111 08:00;4.174;4.511;5.419;4.473
BC;uur;�g/m�;20090111 08:00;20090111 09:00;4.299;4.654;5.332;5.055
BC;uur;�g/m�;20090111 09:00;20090111 10:00;4.407;5.581;5.399;3.437
BC;uur;�g/m�;20090111 10:00;20090111 11:00;4.185;5.034;4.529;3.029
BC;uur;�g/m�;20090111 11:00;20090111 12:00;3.708;3.674;3.757;2.482
BC;uur;�g/m�;20090111 12:00;20090111 13:00;3.56;3.235;3.449;2.242
BC;uur;�g/m�;20090111 13:00;20090111 14:00;3.474;2.956;3.245;1.846
BC;uur;�g/m�;20090111 14:00;20090111 15:00;2.98;2.61;2.783;1.649
BC;uur;�g/m�;20090111 15:00;20090111 16:00;2.753;2.438;2.534;1.535
BC;uur;�g/m�;20090111 16:00;20090111 17:00;2.938;2.49;2.483;1.465
BC;uur;�g/m�;20090111 17:00;20090111 18:00;2.809;2.508;2.633;2.074
BC;uur;�g/m�;20090111 18:00;20090111 19:00;2.618;2.728;2.628;2.067
BC;uur;�g/m�;20090111 19:00;20090111 20:00;2.715;2.924;2.808;2.942
BC;uur;�g/m�;20090111 20:00;20090111 21:00;2.705;3.196;3.152;3.398
BC;uur;�g/m�;20090111 21:00;20090111 22:00;2.818;3.315;3.42;3.542
BC;uur;�g/m�;20090111 22:00;20090111 23:00;2.82;2.984;3.071;3.232
BC;uur;�g/m�;20090111 23:00;20090112 00:00;2.541;2.882;2.784;3.02
BC;uur;�g/m�;20090112 00:00;20090112 01:00;2.323;2.466;2.701;2.901
BC;uur;�g/m�;20090112 01:00;20090112 02:00;2.038;2.368;2.538;2.811
BC;uur;�g/m�;20090112 02:00;20090112 03:00;1.862;2.141;2.353;2.404
BC;uur;�g/m�;20090112 03:00;20090112 04:00;1.876;1.97;2.16;2.173
BC;uur;�g/m�;20090112 04:00;20090112 05:00;1.797;1.732;1.853;2.275
BC;uur;�g/m�;20090112 05:00;20090112 06:00;2.143;1.668;1.651;2.257
BC;uur;�g/m�;20090112 06:00;20090112 07:00;4.262;1.673;1.848;2.014
BC;uur;�g/m�;20090112 07:00;20090112 08:00;4.332;1.756;1.979;1.52
BC;uur;�g/m�;20090112 08:00;20090112 09:00;3.454;2.032;2.086;1.454
BC;uur;�g/m�;20090112 09:00;20090112 10:00;3.033;2.01;2.069;1.404
BC;uur;�g/m�;20090112 10:00;20090112 11:00;3.094;1.927;1.822;1.258
BC;uur;�g/m�;20090112 11:00;20090112 12:00;2.805;2.027;1.806;1.133
BC;uur;�g/m�;20090112 12:00;20090112 13:00;2.968;2.231;1.897;1.176
BC;uur;�g/m�;20090112 13:00;20090112 14:00;3.423;2.157;1.912;1.221
BC;uur;�g/m�;20090112 14:00;20090112 15:00;3.364;2.219;2.272;1.387
BC;uur;�g/m�;20090112 15:00;20090112 16:00;3.899;2.587;2.224;1.479
BC;uur;�g/m�;20090112 16:00;20090112 17:00;4.069;2.713;2.366;1.51
BC;uur;�g/m�;20090112 17:00;20090112 18:00;3.776;2.95;2.404;1.508
BC;uur;�g/m�;20090112 18:00;20090112 19:00;2.872;2.415;2.262;1.346
BC;uur;�g/m�;20090112 19:00;20090112 20:00;2.514;2.26;2.104;1.288
BC;uur;�g/m�;20090112 20:00;20090112 21:00;2.511;2.241;2.069;1.217
BC;uur;�g/m�;20090112 21:00;20090112 22:00;1.957;2.058;1.696;1.324
BC;uur;�g/m�;20090112 22:00;20090112 23:00;1.715;1.727;1.588;1.127
BC;uur;�g/m�;20090112 23:00;20090113 00:00;1.551;1.537;1.64;1.078
BC;uur;�g/m�;20090113 00:00;20090113 01:00;1.409;1.492;1.557;1.341
BC;uur;�g/m�;20090113 01:00;20090113 02:00;1.304;1.569;1.733;1.047
BC;uur;�g/m�;20090113 02:00;20090113 03:00;1.212;1.413;1.547;0.864
BC;uur;�g/m�;20090113 03:00;20090113 04:00;1.201;1.427;1.433;0.793
BC;uur;�g/m�;20090113 04:00;20090113 05:00;1.181;1.227;1.272;0.797
BC;uur;�g/m�;20090113 05:00;20090113 06:00;1.787;1.195;1.298;0.839
BC;uur;�g/m�;20090113 06:00;20090113 07:00;4.142;1.325;1.541;0.912
BC;uur;�g/m�;20090113 07:00;20090113 08:00;4.578;1.81;1.933;1.046
BC;uur;�g/m�;20090113 08:00;20090113 09:00;4.418;1.969;2.215;1.227
BC;uur;�g/m�;20090113 09:00;20090113 10:00;4.186;2.287;1.977;1.4
BC;uur;�g/m�;20090113 10:00;20090113 11:00;3.91;1.94;1.975;1.376
BC;uur;�g/m�;20090113 11:00;20090113 12:00;3.811;1.936;1.504;1.874
BC;uur;�g/m�;20090113 12:00;20090113 13:00;3.512;1.92;1.702;1.429
BC;uur;�g/m�;20090113 13:00;20090113 14:00;4.145;2.242;1.962;1.423
BC;uur;�g/m�;20090113 14:00;20090113 15:00;5.095;3.082;2.369;1.653
BC;uur;�g/m�;20090113 15:00;20090113 16:00;5.495;3.253;3.037;1.693
BC;uur;�g/m�;20090113 16:00;20090113 17:00;5.807;3.124;2.751;1.897
BC;uur;�g/m�;20090113 17:00;20090113 18:00;6.362;3.156;2.757;2.047
BC;uur;�g/m�;20090113 18:00;20090113 19:00;;3.075;2.636;2.197
BC;uur;�g/m�;20090113 19:00;20090113 20:00;3.961;3.33;2.678;1.586
BC;uur;�g/m�;20090113 20:00;20090113 21:00;;3.209;2.431;1.418
BC;uur;�g/m�;20090113 21:00;20090113 22:00;3.47;3.186;2.871;1.729
BC;uur;�g/m�;20090113 22:00;20090113 23:00;3.867;4.362;3.168;2.139
BC;uur;�g/m�;20090113 23:00;20090114 00:00;;4.186;2.881;2.282
BC;uur;�g/m�;20090114 00:00;20090114 01:00;;3.952;3.03;2.241
BC;uur;�g/m�;20090114 01:00;20090114 02:00;;3.997;3.009;1.571
BC;uur;�g/m�;20090114 02:00;20090114 03:00;;3.78;3.164;1.602
BC;uur;�g/m�;20090114 03:00;20090114 04:00;;3.724;2.965;1.8
BC;uur;�g/m�;20090114 04:00;20090114 05:00;;3.749;2.864;1.612
BC;uur;�g/m�;20090114 05:00;20090114 06:00;;3.965;3.444;1.757
BC;uur;�g/m�;20090114 06:00;20090114 07:00;;5.245;3.602;0.848
BC;uur;�g/m�;20090114 07:00;20090114 08:00;;7.526;4.444;0.482
BC;uur;�g/m�;20090114 08:00;20090114 09:00;;2.758;2.969;0.699
BC;uur;�g/m�;20090114 09:00;20090114 10:00;;3.761;3.756;0.767
BC;uur;�g/m�;20090114 10:00;20090114 11:00;7.189;5.988;3.74;1.215
BC;uur;�g/m�;20090114 11:00;20090114 12:00;6.565;5.684;2.947;2.165
BC;uur;�g/m�;20090114 12:00;20090114 13:00;6.486;4.6;2.516;1.464
BC;uur;�g/m�;20090114 13:00;20090114 14:00;;3.552;3.064;1.331
BC;uur;�g/m�;20090114 14:00;20090114 15:00;;6.767;2.8;2.329
BC;uur;�g/m�;20090114 15:00;20090114 16:00;;7.099;3.193;2.512
BC;uur;�g/m�;20090114 16:00;20090114 17:00;;6.265;4.431;2.426
BC;uur;�g/m�;20090114 17:00;20090114 18:00;;5.175;4.329;1.496
BC;uur;�g/m�;20090114 18:00;20090114 19:00;;4.192;2.234;1.673
BC;uur;�g/m�;20090114 19:00;20090114 20:00;;2.745;1.755;1.485
BC;uur;�g/m�;20090114 20:00;20090114 21:00;;3.28;1.826;1.486
BC;uur;�g/m�;20090114 21:00;20090114 22:00;;2.442;2.549;1.8
BC;uur;�g/m�;20090114 22:00;20090114 23:00;;2.562;2.651;2.641
BC;uur;�g/m�;20090114 23:00;20090115 00:00;;2.51;2.094;1.433
BC;uur;�g/m�;20090115 00:00;20090115 01:00;;2.562;2.31;1.205
BC;uur;�g/m�;20090115 01:00;20090115 02:00;;3.174;2.93;1.211
BC;uur;�g/m�;20090115 02:00;20090115 03:00;;3.046;3.343;1.575
BC;uur;�g/m�;20090115 03:00;20090115 04:00;;2.664;3.286;1.445